[[{"header":{"parameterUnit":"m.s-1","parameterCategory":1,"la1":30.2991,"la2":30.254,"lo1":-89.0895,"lo2":-89.0444,"dy":0.0017,"dx":0.0017,"nx":28,"ny":28,"refTime":"2024-12-20T09:00:00:Z","depth":0,"parameterNumber":2,"parameterNumberName":"U-component_of_WINDS"},"data":[0,0,0,0,0,0,0,0,0,0,0,0,0,0,0,0,0,0,0,0,0,0,0,0,0,0,0,0,0,0,0,0,0,0,0,0,0,0,0,0,0,0,0,0,0,0,0,0,0,0,0,0,0,0,0,0,0,0,0.4663,0.4663,0,0.4655,0.4655,0.4655,0.4644,0.4644,0.4644,0.4643,0.4635,0.4635,0.4635,0,0,0,0,0,0,0,0,0,0,0,0,0,0.467,0.4669,0.4663,0.4663,0.4663,0.4655,0.4655,0.4655,0.4644,0.4644,0.4644,0.4643,0.4635,0.4635,0.4635,0,0,0,0,0,0,0,0,0,0,0,0,0,0.4665,0.4669,0.4663,0.4656,0.4656,0.4655,0.4655,0.4655,0.4644,0.4644,0.4644,0.4643,0.4635,0.4635,0.4635,0.4639,0,0,0.4634,0.4634,0,0,0,0,0,0,0,0,0.4665,0.4664,0.4657,0.4657,0.4656,0.465,0.4654,0.4649,0.4644,0.4648,0.4643,0.4643,0.464,0.4639,0.4639,0.4639,0.4638,0.4634,0.4634,0.4634,0.4634,0,0,0,0,0,0,0,0.4665,0.4665,0.466,0.4657,0.4657,0.4654,0.4653,0.4653,0.4646,0.4648,0.4647,0.4647,0.464,0.4639,0.4638,0.4638,0.4634,0.4634,0.4634,0.4634,0.4643,0.4643,0,0,0,0,0,0,0.4666,0.4665,0.466,0.4659,0.466,0.4654,0.4653,0.4652,0.4646,0.4645,0.4647,0.4646,0.4639,0.4638,0.4638,0.4644,0.4634,0.4634,0.4634,0.4643,0.4643,0.4644,0,0,0,0,0,0,0.4667,0.4666,0.466,0.4662,0.4661,0.4654,0.4654,0.4652,0.4651,0.4645,0.4643,0.4647,0.4639,0.4638,0.4639,0.4643,0.4634,0.4634,0.4643,0.4643,0.4643,0.4654,0,0,0,0,0,0,0.4667,0.4666,0.4668,0.4662,0.4661,0.4661,0.4654,0.4652,0.4651,0.465,0.4645,0.4644,0.4638,0.4639,0.4639,0.4643,0.4634,0.4642,0.4643,0.4643,0.4654,0.4655,0.4656,0,0,0,0,0,0.4667,0.4671,0.4668,0.4667,0.4663,0.4662,0.4661,0.4655,0.4651,0.4653,0.4649,0.4644,0.4643,0.464,0.4639,0.4643,0.4642,0.4643,0.4643,0.4653,0.4655,0.4656,0,0,0,0,0,0,0.4676,0.467,0.4666,0.4668,0.4666,0.466,0.4661,0.4657,0.4655,0.4655,0.4648,0.4646,0.4649,0.4646,0.4642,0.4648,0.4642,0.4642,0.4649,0.4651,0.4652,0.4653,0.4634,0,0,0,0,0,0.4679,0.4678,0.4673,0.4675,0.4674,0.4668,0.4667,0.4663,0.466,0.4659,0.4655,0.4652,0.4652,0.4651,0.465,0.4653,0.4652,0.4656,0.4657,0.4658,0.4659,0.4662,0.4663,0.4646,0.4646,0.4646,0,0,0.4683,0.4679,0.468,0.4677,0.4674,0.4674,0.4667,0.4667,0.4667,0.4659,0.466,0.4657,0.4654,0.4657,0.4657,0.4654,0.4664,0.4659,0.466,0.466,0.4663,0.4664,0.4666,0.4646,0.4646,0.4646,0,0,0.4691,0.4688,0.469,0.4688,0.4685,0.4681,0.4682,0.4677,0.4675,0.4676,0.467,0.4671,0.4669,0.4667,0.4666,0.4676,0.4671,0.4676,0.4683,0.4686,0.4687,0.4688,0.4692,0.4694,0.4676,0.4676,0.4676,0,0.4697,0.4697,0.4692,0.4693,0.4692,0.4685,0.4687,0.4686,0.4682,0.4682,0.4678,0.4678,0.4675,0.4677,0.468,0.4679,0.468,0.4676,0.4687,0.4688,0.4689,0.4693,0.4695,0.4677,0.4677,0.4677,0.4677,0,0.4705,0.4705,0.4707,0.4705,0.4704,0.4706,0.4701,0.4701,0.4698,0.4695,0.4697,0.4693,0.4692,0.4692,0.4688,0.4695,0.4693,0.4689,0.4682,0.4692,0.4695,0.4697,0.4678,0.4678,0.4678,0.4677,0,0,0.4717,0.4713,0.4714,0.4713,0.471,0.471,0.4712,0.4711,0.4711,0.471,0.4711,0.4711,0.4708,0.4706,0.4703,0.4705,0.4714,0.47,0.47,0.4703,0.4721,0.4725,0.4726,0.4711,0.4711,0.4711,0.4722,0,0.4725,0.4728,0.4724,0.4728,0.4728,0.4723,0.4724,0.4723,0.472,0.4721,0.4718,0.4718,0.4713,0.4713,0.4715,0.4712,0.4717,0.4711,0.4713,0.4713,0.4713,0.4728,0.4731,0.4741,0.4723,0.4723,0.4723,0,0.4734,0.4734,0.4738,0.4735,0.4735,0.4737,0.4737,0.4737,0.4735,0.4734,0.4733,0.4729,0.4731,0.4726,0.4729,0.4725,0.4726,0.4725,0.4725,0.4725,0.4718,0.4728,0.4744,0.4746,0.4725,0.4725,0.4725,0,0.4743,0.4744,0.4746,0.4746,0.4743,0.4745,0.4743,0.4742,0.4742,0.4742,0.4742,0.4742,0.4742,0.4742,0.4738,0.4735,0.4742,0.4736,0.4741,0.4741,0.4743,0.4743,0.4759,0.4743,0.4743,0.4743,0.4743,0,0.4752,0.4755,0.4751,0.4752,0.4756,0.4751,0.4755,0.4753,0.4752,0.4754,0.4749,0.4751,0.4746,0.4747,0.4744,0.4748,0.4748,0.4747,0.4746,0.4747,0.4747,0.4747,0.4746,0.4743,0.4743,0.4743,0.4743,0,0.4763,0.476,0.4763,0.476,0.476,0.4763,0.4761,0.4762,0.476,0.4763,0.4763,0.476,0.4761,0.4758,0.4758,0.4757,0.4762,0.476,0.4763,0.4762,0.4767,0.4767,0.4784,0.4786,0.4769,0.4769,0.4769,0,0.4769,0.4771,0.4769,0.477,0.4769,0.4771,0.4771,0.4768,0.4769,0.4768,0.477,0.4771,0.4772,0.4775,0.4773,0.4774,0.4772,0.4778,0.4772,0.4773,0.4772,0.4772,0.4773,0.4779,0.4779,0.4779,0.4779,0,0.4779,0.4778,0.4779,0.478,0.4781,0.4781,0.4781,0.4783,0.4779,0.478,0.4782,0.4783,0.4784,0.4786,0.4786,0.4786,0.4782,0.4781,0.4783,0.4784,0.4785,0.4785,0.4766,0.4781,0.4781,0.4781,0.478,0.478,0.4788,0.479,0.479,0.4791,0.4791,0.4792,0.4794,0.4792,0.4794,0.4795,0.4793,0.4795,0.4795,0.4796,0.4796,0.4798,0.4795,0.4797,0.4797,0.4798,0.4799,0.4785,0.4798,0.4798,0.4798,0.4798,0.4798,0,0.4799,0.4799,0.48,0.4801,0.4802,0.48,0.48,0.4801,0.4804,0.4804,0.4805,0.4808,0.481,0.4809,0.481,0.4812,0.4811,0.4813,0.4813,0.4813,0.4801,0.48,0.4814,0.4814,0.4814,0.4814,0.4814,0.4814,0.4805,0.4808,0.4807,0.4811,0.4811,0.4814,0.4815,0.4815,0.4816,0.4819,0.4821,0.482,0.482,0.4822,0.4824,0.4824,0.4824,0.4827,0.4826,0.4815,0.4814,0.4812,0.4811,0.4827,0.4827,0.4838,0.4838,0.4838]},{"header":{"parameterUnit":"m.s-1","parameterCategory":1,"la1":30.2991,"la2":30.254,"lo1":-89.0895,"lo2":-89.0444,"dy":0.0017,"dx":0.0017,"nx":28,"ny":28,"refTime":"2024-12-20T09:00:00:Z","depth":0,"parameterNumber":3,"parameterNumberName":"V-component_of_WINDS"},"data":[0,0,0,0,0,0,0,0,0,0,0,0,0,0,0,0,0,0,0,0,0,0,0,0,0,0,0,0,0,0,0,0,0,0,0,0,0,0,0,0,0,0,0,0,0,0,0,0,0,0,0,0,0,0,0,0,0,0,-4.706,-4.7061,0,-4.7152,-4.7153,-4.7154,-4.7159,-4.7158,-4.7157,-4.7156,-4.7244,-4.7248,-4.7251,0,0,0,0,0,0,0,0,0,0,0,0,0,-4.6884,-4.6887,-4.7059,-4.7061,-4.7062,-4.7152,-4.7153,-4.7154,-4.7159,-4.7158,-4.7157,-4.7156,-4.7243,-4.7247,-4.7251,0,0,0,0,0,0,0,0,0,0,0,0,0,-4.6966,-4.6888,-4.7059,-4.7076,-4.7078,-4.7151,-4.7153,-4.7154,-4.716,-4.7158,-4.7157,-4.7155,-4.7242,-4.7247,-4.7252,-4.7313,0,0,-4.7267,-4.7269,0,0,0,0,0,0,0,0,-4.6962,-4.6973,-4.7072,-4.7075,-4.7077,-4.7143,-4.7123,-4.7207,-4.716,-4.7128,-4.7156,-4.7154,-4.7211,-4.7219,-4.7239,-4.7317,-4.7321,-4.7267,-4.727,-4.7272,-4.7274,0,0,0,0,0,0,0,-4.6956,-4.6969,-4.7096,-4.7073,-4.7077,-4.7077,-4.7087,-4.7139,-4.7177,-4.7131,-4.7132,-4.7143,-4.7212,-4.7234,-4.7241,-4.7322,-4.7267,-4.7272,-4.7275,-4.7277,-4.7457,-4.7459,0,0,0,0,0,0,-4.6948,-4.6964,-4.7093,-4.7099,-4.7015,-4.7081,-4.7092,-4.7123,-4.7177,-4.7184,-4.7144,-4.7143,-4.7227,-4.7235,-4.7244,-4.7321,-4.7272,-4.7277,-4.728,-4.7456,-4.7458,-4.746,0,0,0,0,0,0,-4.6944,-4.6959,-4.7089,-4.7032,-4.7048,-4.7086,-4.712,-4.7126,-4.7148,-4.7187,-4.7193,-4.716,-4.7226,-4.7237,-4.7297,-4.7324,-4.7279,-4.7284,-4.7453,-4.7456,-4.7459,-4.7475,0,0,0,0,0,0,-4.6939,-4.6958,-4.6983,-4.7032,-4.7051,-4.7142,-4.7122,-4.7129,-4.7157,-4.7156,-4.7203,-4.7209,-4.7225,-4.729,-4.7302,-4.733,-4.7288,-4.7451,-4.7455,-4.7458,-4.7472,-4.7478,-4.7483,0,0,0,0,0,-4.6933,-4.6982,-4.6984,-4.6999,-4.7083,-4.7143,-4.7154,-4.7173,-4.7159,-4.7184,-4.7209,-4.7208,-4.7319,-4.7296,-4.7309,-4.734,-4.7449,-4.7454,-4.7458,-4.7469,-4.7476,-4.7482,0,0,0,0,0,0,-4.6931,-4.6988,-4.6991,-4.7058,-4.7096,-4.7144,-4.7176,-4.718,-4.7221,-4.7218,-4.7238,-4.7249,-4.7308,-4.733,-4.7302,-4.7403,-4.7383,-4.739,-4.7387,-4.7394,-4.7399,-4.7393,-4.7292,0,0,0,0,0,-4.694,-4.6985,-4.7032,-4.7086,-4.7105,-4.7137,-4.7164,-4.7176,-4.7215,-4.7231,-4.726,-4.7297,-4.734,-4.7368,-4.741,-4.7475,-4.7486,-4.7503,-4.7508,-4.7512,-4.7518,-4.7555,-4.7564,-4.7473,-4.7473,-4.7473,0,0,-4.6955,-4.6992,-4.7019,-4.7087,-4.7118,-4.7163,-4.715,-4.7199,-4.7233,-4.7237,-4.7296,-4.7319,-4.7361,-4.7424,-4.7453,-4.7444,-4.7546,-4.7518,-4.7521,-4.7524,-4.756,-4.7569,-4.7577,-4.7476,-4.7475,-4.7475,0,0,-4.7008,-4.7041,-4.7091,-4.7123,-4.7171,-4.7192,-4.7204,-4.7252,-4.7268,-4.7328,-4.7333,-4.7373,-4.7447,-4.7477,-4.7502,-4.7569,-4.757,-4.7582,-4.761,-4.7646,-4.7653,-4.766,-4.7684,-4.7693,-4.7588,-4.7588,-4.7588,0,-4.7021,-4.7093,-4.7115,-4.7165,-4.7194,-4.7203,-4.7254,-4.7283,-4.7341,-4.736,-4.735,-4.7445,-4.7473,-4.7544,-4.7561,-4.7581,-4.7595,-4.7577,-4.7651,-4.7657,-4.7664,-4.7687,-4.7696,-4.7589,-4.7589,-4.7589,-4.7589,0,-4.7107,-4.7156,-4.719,-4.725,-4.7283,-4.7332,-4.7361,-4.7392,-4.7402,-4.7424,-4.7485,-4.752,-4.7571,-4.7588,-4.7596,-4.7661,-4.7654,-4.7647,-4.7626,-4.7673,-4.7696,-4.7705,-4.7591,-4.759,-4.759,-4.759,0,0,-4.716,-4.7234,-4.7246,-4.7274,-4.7328,-4.7366,-4.7415,-4.7467,-4.7494,-4.7533,-4.7576,-4.7639,-4.7634,-4.7662,-4.7674,-4.7706,-4.7758,-4.7695,-4.7697,-4.7706,-4.7832,-4.7837,-4.7847,-4.7759,-4.7761,-4.7762,-4.7829,0,-4.722,-4.7311,-4.7334,-4.7411,-4.7457,-4.7468,-4.7511,-4.7549,-4.7571,-4.7612,-4.7636,-4.7681,-4.767,-4.7688,-4.7719,-4.7745,-4.7784,-4.774,-4.7797,-4.7799,-4.7787,-4.7859,-4.7865,-4.7925,-4.7837,-4.7839,-4.784,0,-4.7301,-4.7347,-4.743,-4.748,-4.75,-4.7539,-4.7589,-4.7629,-4.7671,-4.7685,-4.7719,-4.7728,-4.7779,-4.7757,-4.7828,-4.7798,-4.7823,-4.7839,-4.7842,-4.7848,-4.7822,-4.7867,-4.7945,-4.7955,-4.7854,-4.7853,-4.7852,0,-4.7333,-4.7414,-4.7475,-4.7498,-4.7558,-4.7586,-4.7612,-4.7653,-4.7684,-4.7726,-4.7746,-4.7794,-4.7819,-4.7855,-4.7877,-4.7859,-4.7947,-4.7926,-4.7959,-4.7959,-4.7977,-4.7975,-4.806,-4.7992,-4.7992,-4.7992,-4.7992,0,-4.7397,-4.7448,-4.7491,-4.7528,-4.7585,-4.761,-4.7665,-4.7691,-4.7728,-4.777,-4.778,-4.7819,-4.7845,-4.7887,-4.7904,-4.7961,-4.7972,-4.7984,-4.7988,-4.7983,-4.7982,-4.8,-4.7996,-4.7994,-4.7994,-4.7993,-4.7993,0,-4.7442,-4.7473,-4.754,-4.7593,-4.7607,-4.7647,-4.7691,-4.7727,-4.7751,-4.7803,-4.7817,-4.7853,-4.7903,-4.7929,-4.799,-4.8002,-4.8066,-4.8067,-4.8052,-4.8054,-4.8086,-4.8083,-4.8185,-4.82,-4.8122,-4.8123,-4.8123,0,-4.7481,-4.7521,-4.7579,-4.7609,-4.7637,-4.7684,-4.7716,-4.7742,-4.7775,-4.7828,-4.7857,-4.7909,-4.7951,-4.803,-4.8061,-4.8108,-4.8111,-4.8143,-4.8118,-4.8112,-4.8112,-4.811,-4.8114,-4.8148,-4.8149,-4.8149,-4.815,0,-4.7547,-4.7562,-4.7608,-4.7661,-4.77,-4.7742,-4.7783,-4.7806,-4.7839,-4.7875,-4.7928,-4.7961,-4.8026,-4.8076,-4.8127,-4.8151,-4.8156,-4.8158,-4.8168,-4.8164,-4.8154,-4.8161,-4.8065,-4.8155,-4.8155,-4.8154,-4.8154,-4.8154,-4.7591,-4.7628,-4.7675,-4.7727,-4.7762,-4.7801,-4.7838,-4.7868,-4.7913,-4.797,-4.7982,-4.8038,-4.808,-4.8149,-4.8175,-4.8219,-4.8212,-4.8226,-4.823,-4.8233,-4.8235,-4.8148,-4.8228,-4.8227,-4.8227,-4.8227,-4.8227,0,-4.7659,-4.7691,-4.7739,-4.7798,-4.7839,-4.7843,-4.7889,-4.7923,-4.7973,-4.8013,-4.8056,-4.8117,-4.8167,-4.8202,-4.8253,-4.8281,-4.8284,-4.8293,-4.8291,-4.8297,-4.8238,-4.8225,-4.8289,-4.8289,-4.8289,-4.8289,-4.8289,-4.8289,-4.7699,-4.7762,-4.7782,-4.7861,-4.7892,-4.795,-4.7976,-4.8012,-4.8045,-4.8114,-4.8156,-4.818,-4.8218,-4.8272,-4.8318,-4.8327,-4.8345,-4.8354,-4.8363,-4.8307,-4.8301,-4.8295,-4.8282,-4.8357,-4.8357,-4.8418,-4.8418,-4.8419]}]]